User: anonymous   Login
Location: Newark
(25.0000°N, 73.5000°E)
Time: 12:27:56
(UTC+00:00)
Language:

Altair - Orbit

View from above orbital plane
View from above orbital plane
View from above satellite
View from above satellite

Ground track
Ground track

The orbit data is extracted from the following two-line orbital elements,

1 00050U 60009B   21135.18163169 -.00000100  00000-0 -14953-3 0  9995
2 00050  47.2294 171.6965 0114551 234.4978 124.5081 12.20117087710721
Epoch (UTC): 15 May 2021 04:21:32
Eccentricity: 0.0114551
inclination: 47.2294°
perigee height: 1501 km
apogee height: 1683 km
right ascension of ascending node: 171.6965°
argument of perigee: 234.4978°
revolutions per day: 12.20117087
mean anomaly at epoch: 124.5081°
orbit number at epoch: 71072

The dashed part of the orbit path shows where the satellite is in the earth's shadow,  

DLR